[[{"header":{"parameterUnit":"m.s-1","parameterCategory":1,"la1":30.2991,"la2":30.254,"lo1":-89.0895,"lo2":-89.0444,"dy":0.0017,"dx":0.0017,"nx":28,"ny":28,"refTime":"2024-08-11T09:00:00:Z","depth":0,"parameterNumber":2,"parameterNumberName":"U-component_of_WINDS"},"data":[0,0,0,0,0,0,0,0,0,0,0,0,0,0,0,0,0,0,0,0,0,0,0,0,0,0,0,0,0,0,0,0,0,0,0,0,0,0,0,0,0,0,0,0,0,0,0,0,0,0,0,0,0,0,0,0,0,0,-1.0919,-1.0919,0,-1.0907,-1.0907,-1.0907,-1.0835,-1.0834,-1.0832,-1.083,-1.0821,-1.0823,-1.0824,0,0,0,0,0,0,0,0,0,0,0,0,0,-1.0883,-1.0884,-1.0919,-1.0919,-1.0919,-1.0907,-1.0907,-1.0907,-1.0836,-1.0834,-1.0832,-1.083,-1.0821,-1.0822,-1.0824,0,0,0,0,0,0,0,0,0,0,0,0,0,-1.0887,-1.0884,-1.0919,-1.0882,-1.0878,-1.0907,-1.0907,-1.0906,-1.0836,-1.0834,-1.0831,-1.0829,-1.082,-1.0822,-1.0824,-1.0889,0,0,-1.0831,-1.0831,0,0,0,0,0,0,0,0,-1.0887,-1.0889,-1.0887,-1.0884,-1.088,-1.087,-1.089,-1.0901,-1.0837,-1.0852,-1.083,-1.0827,-1.084,-1.084,-1.0844,-1.0888,-1.0888,-1.0831,-1.0832,-1.0833,-1.0833,0,0,0,0,0,0,0,-1.0887,-1.0889,-1.0914,-1.0887,-1.0883,-1.0866,-1.0864,-1.0892,-1.0861,-1.0851,-1.0846,-1.0845,-1.0837,-1.0842,-1.0843,-1.0888,-1.0831,-1.0833,-1.0834,-1.0835,-1.0985,-1.0987,0,0,0,0,0,0,-1.0891,-1.0889,-1.0915,-1.0914,-1.0877,-1.0869,-1.0867,-1.0876,-1.086,-1.0855,-1.0847,-1.0842,-1.084,-1.0841,-1.0842,-1.0917,-1.0833,-1.0835,-1.0836,-1.0982,-1.0985,-1.0988,0,0,0,0,0,0,-1.0891,-1.0894,-1.0915,-1.09,-1.0901,-1.0872,-1.0884,-1.0877,-1.0881,-1.0857,-1.0852,-1.0857,-1.0838,-1.0839,-1.0877,-1.0916,-1.0836,-1.0838,-1.0979,-1.0983,-1.0987,-1.1068,0,0,0,0,0,0,-1.089,-1.0895,-1.0919,-1.0901,-1.0902,-1.095,-1.0886,-1.0879,-1.0885,-1.0877,-1.0865,-1.0861,-1.0836,-1.0875,-1.088,-1.0917,-1.0839,-1.0975,-1.0981,-1.0985,-1.1062,-1.1074,-1.1085,0,0,0,0,0,-1.0889,-1.0943,-1.092,-1.0924,-1.0931,-1.0953,-1.0953,-1.0922,-1.0888,-1.0912,-1.0897,-1.0861,-1.091,-1.0879,-1.0884,-1.0923,-1.0973,-1.0979,-1.0985,-1.1056,-1.1072,-1.1085,0,0,0,0,0,0,-1.0967,-1.094,-1.0915,-1.0964,-1.0961,-1.094,-1.097,-1.0939,-1.0947,-1.094,-1.0902,-1.09,-1.0944,-1.0937,-1.0903,-1.0984,-1.0935,-1.0943,-1.0988,-1.1002,-1.1014,-1.1016,-1.0841,0,0,0,0,0,-1.0989,-1.1008,-1.0983,-1.1029,-1.1029,-1.1,-1.1008,-1.0984,-1.098,-1.0979,-1.0966,-1.0964,-1.0979,-1.099,-1.1002,-1.1059,-1.1056,-1.1088,-1.11,-1.111,-1.1117,-1.1148,-1.1162,-1.1009,-1.1009,-1.1009,0,0,-1.1037,-1.1024,-1.1039,-1.1044,-1.1039,-1.106,-1.0999,-1.1024,-1.104,-1.0983,-1.1018,-1.1008,-1.1004,-1.1052,-1.1072,-1.1047,-1.1158,-1.1117,-1.1125,-1.1128,-1.1156,-1.117,-1.1183,-1.1013,-1.1012,-1.1011,0,0,-1.1135,-1.1126,-1.1164,-1.1159,-1.1152,-1.1132,-1.1141,-1.1125,-1.1116,-1.115,-1.1108,-1.1126,-1.1152,-1.1151,-1.1154,-1.1249,-1.1217,-1.1253,-1.1316,-1.1346,-1.1358,-1.1368,-1.1404,-1.1417,-1.1261,-1.1261,-1.1261,0,-1.1196,-1.1225,-1.1187,-1.1215,-1.1219,-1.1166,-1.1204,-1.1202,-1.1199,-1.1204,-1.1175,-1.1207,-1.12,-1.1247,-1.127,-1.1273,-1.1284,-1.1256,-1.1359,-1.1369,-1.1378,-1.1412,-1.1425,-1.1266,-1.1265,-1.1265,-1.1264,0,-1.13,-1.1321,-1.1352,-1.1349,-1.1356,-1.1389,-1.1358,-1.1369,-1.1344,-1.1327,-1.1363,-1.1352,-1.1362,-1.1371,-1.1347,-1.1415,-1.1399,-1.1365,-1.1316,-1.1398,-1.1429,-1.1442,-1.1272,-1.1271,-1.1269,-1.1268,0,0,-1.145,-1.1424,-1.1437,-1.1435,-1.1422,-1.1437,-1.1467,-1.1475,-1.1487,-1.1486,-1.1511,-1.1534,-1.1502,-1.1505,-1.148,-1.1506,-1.1583,-1.1468,-1.1468,-1.1492,-1.1659,-1.1687,-1.1702,-1.1561,-1.1563,-1.1565,-1.166,0,-1.1545,-1.1594,-1.1561,-1.1616,-1.1635,-1.1584,-1.161,-1.1605,-1.159,-1.1604,-1.1587,-1.1605,-1.156,-1.1562,-1.1585,-1.1569,-1.1617,-1.1561,-1.1586,-1.1587,-1.1591,-1.1718,-1.1748,-1.1838,-1.1672,-1.1674,-1.1675,0,-1.1663,-1.1666,-1.1724,-1.1706,-1.1713,-1.1737,-1.1741,-1.1755,-1.1748,-1.1735,-1.1738,-1.1706,-1.1735,-1.1684,-1.1724,-1.1687,-1.1694,-1.1688,-1.169,-1.1694,-1.1638,-1.1727,-1.1866,-1.1881,-1.1694,-1.1692,-1.1691,0,-1.1769,-1.1787,-1.1824,-1.1824,-1.1803,-1.1822,-1.1814,-1.1805,-1.1811,-1.1815,-1.1819,-1.1827,-1.1831,-1.1838,-1.1809,-1.1774,-1.1854,-1.18,-1.1845,-1.1846,-1.1867,-1.1866,-1.2011,-1.1868,-1.1867,-1.1867,-1.1867,0,-1.188,-1.1918,-1.1871,-1.1894,-1.1934,-1.1895,-1.1936,-1.1923,-1.1915,-1.1935,-1.1891,-1.1911,-1.187,-1.1886,-1.1863,-1.1901,-1.1903,-1.1894,-1.1888,-1.19,-1.1901,-1.1906,-1.19,-1.1871,-1.187,-1.1869,-1.1869,0,-1.2007,-1.1977,-1.2014,-1.199,-1.1985,-1.2016,-1.1997,-1.2018,-1.1998,-1.2024,-1.2028,-1.1998,-1.2014,-1.1985,-1.1998,-1.1982,-1.2035,-1.2018,-1.2038,-1.2034,-1.2081,-1.2078,-1.2237,-1.2256,-1.2098,-1.21,-1.2101,0,-1.2082,-1.2109,-1.2088,-1.2098,-1.2092,-1.2108,-1.2114,-1.2076,-1.2084,-1.2078,-1.21,-1.2112,-1.212,-1.2148,-1.2129,-1.2138,-1.2123,-1.2177,-1.2124,-1.2135,-1.2126,-1.2126,-1.2129,-1.219,-1.2192,-1.2193,-1.2194,0,-1.2218,-1.2201,-1.2211,-1.2215,-1.2223,-1.2225,-1.2224,-1.2235,-1.2194,-1.2205,-1.2221,-1.2227,-1.2239,-1.2253,-1.2257,-1.225,-1.2217,-1.221,-1.2222,-1.2236,-1.2247,-1.2243,-1.207,-1.2208,-1.2207,-1.2206,-1.2205,-1.2204,-1.2322,-1.2344,-1.2333,-1.2345,-1.2339,-1.2339,-1.2357,-1.2339,-1.2351,-1.2357,-1.2333,-1.2354,-1.2346,-1.2348,-1.2345,-1.2362,-1.2337,-1.2354,-1.2358,-1.2363,-1.2372,-1.2241,-1.2362,-1.2361,-1.2361,-1.2361,-1.236,0,-1.2458,-1.2447,-1.2459,-1.2458,-1.2467,-1.2431,-1.2428,-1.2439,-1.2458,-1.2452,-1.246,-1.2478,-1.249,-1.247,-1.2479,-1.2497,-1.2481,-1.2501,-1.25,-1.25,-1.2392,-1.2382,-1.2513,-1.2513,-1.2513,-1.2513,-1.2513,-1.2513,-1.253,-1.2566,-1.2547,-1.2579,-1.2568,-1.2588,-1.2589,-1.2589,-1.2584,-1.2605,-1.2615,-1.2601,-1.259,-1.2597,-1.2607,-1.2601,-1.2607,-1.2633,-1.2622,-1.2522,-1.2507,-1.2493,-1.2484,-1.2634,-1.2634,-1.2728,-1.2729,-1.273]},{"header":{"parameterUnit":"m.s-1","parameterCategory":1,"la1":30.2991,"la2":30.254,"lo1":-89.0895,"lo2":-89.0444,"dy":0.0017,"dx":0.0017,"nx":28,"ny":28,"refTime":"2024-08-11T09:00:00:Z","depth":0,"parameterNumber":3,"parameterNumberName":"V-component_of_WINDS"},"data":[0,0,0,0,0,0,0,0,0,0,0,0,0,0,0,0,0,0,0,0,0,0,0,0,0,0,0,0,0,0,0,0,0,0,0,0,0,0,0,0,0,0,0,0,0,0,0,0,0,0,0,0,0,0,0,0,0,0,-3.0377,-3.0378,0,-3.0483,-3.0485,-3.0486,-3.0497,-3.0496,-3.0495,-3.0494,-3.06,-3.0603,-3.0607,0,0,0,0,0,0,0,0,0,0,0,0,0,-3.0181,-3.0184,-3.0377,-3.0378,-3.038,-3.0483,-3.0485,-3.0486,-3.0497,-3.0496,-3.0495,-3.0493,-3.0598,-3.0603,-3.0608,0,0,0,0,0,0,0,0,0,0,0,0,0,-3.0274,-3.0186,-3.0377,-3.0398,-3.0401,-3.0483,-3.0485,-3.0486,-3.0498,-3.0496,-3.0494,-3.0493,-3.0597,-3.0603,-3.0608,-3.0676,0,0,-3.0626,-3.0628,0,0,0,0,0,0,0,0,-3.0269,-3.0282,-3.0393,-3.0396,-3.04,-3.0475,-3.0454,-3.055,-3.0498,-3.0461,-3.0494,-3.0492,-3.0559,-3.0568,-3.0592,-3.0681,-3.0685,-3.0626,-3.063,-3.0632,-3.0634,0,0,0,0,0,0,0,-3.0263,-3.0277,-3.0419,-3.0395,-3.0399,-3.0401,-3.0413,-3.0472,-3.0518,-3.0464,-3.0465,-3.0478,-3.0561,-3.0586,-3.0594,-3.0687,-3.0626,-3.0631,-3.0635,-3.0637,-3.0836,-3.0838,0,0,0,0,0,0,-3.0253,-3.0272,-3.0415,-3.0422,-3.0329,-3.0406,-3.0419,-3.0453,-3.0517,-3.0525,-3.0479,-3.0478,-3.0577,-3.0587,-3.0598,-3.0681,-3.0632,-3.0637,-3.0641,-3.0834,-3.0836,-3.0838,0,0,0,0,0,0,-3.0248,-3.0265,-3.0411,-3.0347,-3.0366,-3.0411,-3.0449,-3.0456,-3.0481,-3.0528,-3.0536,-3.0496,-3.0576,-3.059,-3.0656,-3.0684,-3.064,-3.0645,-3.0832,-3.0835,-3.0837,-3.0847,0,0,0,0,0,0,-3.0243,-3.0264,-3.029,-3.0348,-3.0369,-3.0469,-3.0451,-3.0459,-3.0491,-3.0491,-3.0547,-3.0555,-3.0576,-3.0648,-3.0662,-3.0692,-3.065,-3.083,-3.0833,-3.0837,-3.0844,-3.085,-3.0854,0,0,0,0,0,-3.0236,-3.0288,-3.0292,-3.0309,-3.0404,-3.047,-3.0483,-3.0507,-3.0493,-3.052,-3.0551,-3.0553,-3.0679,-3.0654,-3.0671,-3.0702,-3.0828,-3.0832,-3.0836,-3.0842,-3.0849,-3.0854,0,0,0,0,0,0,-3.0232,-3.0296,-3.0301,-3.0374,-3.0417,-3.0472,-3.0507,-3.0513,-3.056,-3.0558,-3.0585,-3.0598,-3.0663,-3.0689,-3.0661,-3.0771,-3.0752,-3.076,-3.0751,-3.0758,-3.0763,-3.0754,-3.0654,0,0,0,0,0,-3.0239,-3.0289,-3.0342,-3.0401,-3.0423,-3.0461,-3.0491,-3.0506,-3.0551,-3.0569,-3.0605,-3.0648,-3.0697,-3.0729,-3.0777,-3.0849,-3.0861,-3.0878,-3.0883,-3.0887,-3.0893,-3.0932,-3.0941,-3.0852,-3.0852,-3.0852,0,0,-3.0256,-3.0297,-3.0326,-3.0402,-3.0437,-3.0487,-3.0476,-3.0529,-3.0566,-3.0577,-3.0642,-3.067,-3.072,-3.0789,-3.0821,-3.0813,-3.092,-3.0893,-3.0895,-3.0899,-3.0937,-3.0946,-3.0953,-3.0855,-3.0855,-3.0854,0,0,-3.031,-3.0347,-3.04,-3.0436,-3.049,-3.0515,-3.0528,-3.0583,-3.0602,-3.0668,-3.0677,-3.0721,-3.0806,-3.0841,-3.087,-3.0939,-3.0942,-3.0954,-3.0979,-3.1017,-3.1024,-3.103,-3.1054,-3.1062,-3.096,-3.096,-3.096,0,-3.0323,-3.04,-3.0426,-3.048,-3.0512,-3.0526,-3.0579,-3.0612,-3.0678,-3.07,-3.0691,-3.0797,-3.0832,-3.0909,-3.0926,-3.0949,-3.0964,-3.0947,-3.1021,-3.1028,-3.1034,-3.1057,-3.1066,-3.0961,-3.096,-3.096,-3.096,0,-3.0412,-3.0465,-3.0502,-3.0567,-3.0603,-3.0656,-3.069,-3.0724,-3.0737,-3.0762,-3.0829,-3.0871,-3.0928,-3.0948,-3.096,-3.1027,-3.102,-3.1016,-3.0997,-3.1043,-3.1065,-3.1074,-3.0962,-3.0962,-3.0961,-3.0961,0,0,-3.0466,-3.0546,-3.0559,-3.0588,-3.0649,-3.069,-3.0744,-3.08,-3.0829,-3.0874,-3.0919,-3.0991,-3.0987,-3.102,-3.1036,-3.107,-3.1121,-3.1061,-3.1063,-3.107,-3.1196,-3.1198,-3.1208,-3.1124,-3.1126,-3.1127,-3.1192,0,-3.0527,-3.0624,-3.065,-3.0731,-3.078,-3.0794,-3.084,-3.0882,-3.0908,-3.0953,-3.0981,-3.1031,-3.1023,-3.1043,-3.1077,-3.1107,-3.1146,-3.1103,-3.1165,-3.1167,-3.1151,-3.122,-3.1222,-3.1281,-3.1201,-3.1202,-3.1203,0,-3.0611,-3.0659,-3.0746,-3.08,-3.0822,-3.0863,-3.0917,-3.096,-3.1008,-3.1024,-3.1061,-3.1075,-3.113,-3.111,-3.1186,-3.1156,-3.1183,-3.1202,-3.1205,-3.121,-3.1187,-3.1226,-3.1301,-3.1309,-3.1217,-3.1216,-3.1215,0,-3.064,-3.0727,-3.079,-3.0815,-3.088,-3.0909,-3.0938,-3.0984,-3.1016,-3.1063,-3.1085,-3.1137,-3.1166,-3.1206,-3.1233,-3.1216,-3.1306,-3.1289,-3.1321,-3.132,-3.1338,-3.1336,-3.1416,-3.1357,-3.1357,-3.1357,-3.1357,0,-3.0704,-3.0756,-3.0804,-3.0842,-3.0901,-3.093,-3.0987,-3.1016,-3.1057,-3.1101,-3.1117,-3.1157,-3.1191,-3.1236,-3.1257,-3.1317,-3.133,-3.1344,-3.1349,-3.1342,-3.134,-3.1359,-3.1355,-3.1359,-3.1359,-3.1358,-3.1358,0,-3.0746,-3.078,-3.085,-3.0907,-3.0922,-3.0963,-3.1011,-3.1049,-3.1076,-3.1131,-3.1145,-3.1187,-3.1241,-3.1273,-3.134,-3.1355,-3.142,-3.1424,-3.1404,-3.1406,-3.1436,-3.1432,-3.153,-3.1544,-3.1477,-3.1477,-3.1478,0,-3.0784,-3.0825,-3.0887,-3.0918,-3.0947,-3.0997,-3.103,-3.1061,-3.1095,-3.1153,-3.1183,-3.1238,-3.1284,-3.1369,-3.1405,-3.1456,-3.146,-3.1491,-3.1468,-3.146,-3.146,-3.1456,-3.146,-3.1495,-3.1495,-3.1496,-3.1496,0,-3.0848,-3.0863,-3.0912,-3.0966,-3.1006,-3.105,-3.1094,-3.1118,-3.1156,-3.1193,-3.1249,-3.1285,-3.1354,-3.1408,-3.1463,-3.1492,-3.15,-3.1503,-3.1513,-3.1506,-3.1493,-3.1499,-3.1414,-3.1501,-3.15,-3.15,-3.15,-3.1499,-3.0889,-3.0925,-3.0975,-3.1028,-3.1064,-3.1105,-3.1143,-3.1175,-3.1223,-3.1283,-3.1298,-3.1356,-3.1403,-3.1478,-3.1508,-3.1553,-3.1548,-3.1562,-3.1566,-3.1569,-3.1569,-3.1487,-3.1563,-3.1563,-3.1563,-3.1563,-3.1563,0,-3.0952,-3.0985,-3.1034,-3.1095,-3.1137,-3.1143,-3.1192,-3.1226,-3.1277,-3.1321,-3.1366,-3.143,-3.1483,-3.1523,-3.1577,-3.1606,-3.1611,-3.1619,-3.1616,-3.1622,-3.1571,-3.1557,-3.1614,-3.1614,-3.1614,-3.1614,-3.1614,-3.1614,-3.099,-3.1052,-3.1073,-3.1153,-3.1186,-3.1244,-3.1271,-3.1308,-3.1343,-3.1414,-3.1459,-3.1485,-3.1528,-3.1585,-3.1633,-3.1644,-3.1662,-3.167,-3.168,-3.1632,-3.1626,-3.1621,-3.1607,-3.1674,-3.1674,-3.1728,-3.1728,-3.1729]}]]